Time,TemperatureF,DewpointF,PressureIn,WindDirection,WindDirectionDegrees,WindSpeedMPH,WindSpeedGustMPH,Humidity,HourlyPrecipIn,Conditions,Clouds,dailyrainin,SoftwareType,DateUTC
2013-03-19 00:02:00,51.0,43.0,29.97,ENE,68,3.0,4.0,73,0.00,,,0.00,,2013-03-19 05:02:00,
2013-03-19 00:12:00,51.0,43.0,29.97,ENE,68,3.0,4.0,73,0.00,,,0.00,,2013-03-19 05:12:00,
2013-03-19 00:22:00,51.0,43.0,29.97,East,82,3.0,4.0,73,0.00,,,0.00,,2013-03-19 05:22:00,
2013-03-19 00:32:00,49.0,42.0,29.96,SE,131,4.0,4.0,76,0.00,,,0.00,,2013-03-19 05:32:00,
2013-03-19 00:42:00,49.0,42.0,29.96,SE,131,4.0,4.0,76,0.00,,,0.00,,2013-03-19 05:42:00,
2013-03-19 00:52:00,48.0,40.0,29.96,East,100,4.0,4.0,75,0.00,,,0.00,,2013-03-19 05:52:00,
2013-03-19 01:02:00,47.0,40.0,29.96,ESE,110,3.0,3.0,76,0.00,,,0.00,,2013-03-19 06:02:00,
2013-03-19 01:12:00,47.0,40.0,29.96,ESE,110,3.0,3.0,76,0.00,,,0.00,,2013-03-19 06:12:00,
2013-03-19 01:22:00,46.0,40.0,29.96,SE,124,2.0,2.0,78,0.00,,,0.00,,2013-03-19 06:22:00,
2013-03-19 01:32:00,45.0,39.0,29.96,SE,139,0.0,0.0,80,0.00,,,0.00,,2013-03-19 06:32:00,
2013-03-19 01:42:00,45.0,39.0,29.96,SE,139,0.0,0.0,80,0.00,,,0.00,,2013-03-19 06:42:00,
2013-03-19 01:52:00,44.0,39.0,29.96,SSE,162,4.0,4.0,81,0.00,,,0.00,,2013-03-19 06:52:00,
2013-03-19 02:02:00,44.0,39.0,29.96,South,177,5.0,5.0,82,0.00,,,0.00,,2013-03-19 07:02:00,
2013-03-19 02:12:00,44.0,39.0,29.96,South,177,5.0,5.0,82,0.00,,,0.00,,2013-03-19 07:12:00,
2013-03-19 02:21:00,43.0,38.0,29.96,South,170,4.0,4.0,82,0.00,,,0.00,,2013-03-19 07:21:00,
2013-03-19 02:32:00,42.0,37.0,29.96,South,186,2.0,3.0,82,0.00,,,0.00,,2013-03-19 07:32:00,
2013-03-19 02:42:00,42.0,37.0,29.96,South,186,2.0,3.0,82,0.00,,,0.00,,2013-03-19 07:42:00,
2013-03-19 02:52:00,41.0,37.0,29.96,SSW,205,1.0,0.0,85,0.00,,,0.00,,2013-03-19 07:52:00,
2013-03-19 03:02:00,41.0,37.0,29.96,SW,217,2.0,2.0,85,0.00,,,0.00,,2013-03-19 08:02:00,
2013-03-19 03:12:00,41.0,37.0,29.96,SW,217,2.0,2.0,85,0.00,,,0.00,,2013-03-19 08:12:00,
2013-03-19 03:22:00,39.0,35.0,29.96,SSW,200,0.0,0.0,87,0.00,,,0.00,,2013-03-19 08:22:00,
2013-03-19 03:32:00,38.0,34.0,29.96,SSW,200,0.0,0.0,87,0.00,,,0.00,,2013-03-19 08:32:00,
2013-03-19 03:42:00,38.0,34.0,29.96,SSW,200,0.0,0.0,87,0.00,,,0.00,,2013-03-19 08:42:00,
2013-03-19 03:52:00,38.0,34.0,29.96,South,177,3.0,3.0,87,0.00,,,0.00,,2013-03-19 08:52:00,
2013-03-19 04:02:00,39.0,36.0,29.96,SSE,152,0.0,0.0,88,0.00,,,0.00,,2013-03-19 09:02:00,
2013-03-19 04:12:00,39.0,36.0,29.96,SSE,152,0.0,0.0,88,0.00,,,0.00,,2013-03-19 09:12:00,
2013-03-19 04:22:00,39.0,36.0,29.96,SSE,158,2.0,0.0,90,0.00,,,0.00,,2013-03-19 09:22:00,
2013-03-19 04:32:00,38.0,36.0,29.95,WSW,250,3.0,3.0,91,0.00,,,0.00,,2013-03-19 09:32:00,
2013-03-19 04:42:00,38.0,36.0,29.95,WSW,250,3.0,3.0,91,0.00,,,0.00,,2013-03-19 09:42:00,
2013-03-19 04:53:00,38.0,36.0,29.95,West,274,0.0,0.0,92,0.00,,,0.00,,2013-03-19 09:53:00,
2013-03-19 05:03:00,40.0,38.0,29.95,West,274,0.0,0.0,92,0.00,,,0.00,,2013-03-19 10:03:00,
2013-03-19 05:12:00,40.0,38.0,29.95,West,274,0.0,0.0,92,0.00,,,0.00,,2013-03-19 10:12:00,
2013-03-19 05:23:00,40.0,38.0,29.95,West,274,0.0,0.0,92,0.00,,,0.00,,2013-03-19 10:23:00,
2013-03-19 05:32:00,40.0,38.0,29.95,West,274,0.0,0.0,92,0.00,,,0.00,,2013-03-19 10:32:00,
2013-03-19 05:42:00,40.0,38.0,29.95,West,274,0.0,0.0,92,0.00,,,0.00,,2013-03-19 10:42:00,
2013-03-19 05:53:00,41.0,39.0,29.96,West,274,0.0,0.0,92,0.00,,,0.00,,2013-03-19 10:53:00,
2013-03-19 06:02:00,42.0,40.0,29.97,West,274,0.0,0.0,92,0.00,,,0.00,,2013-03-19 11:02:00,
2013-03-19 06:12:00,42.0,40.0,29.97,West,274,0.0,0.0,92,0.00,,,0.00,,2013-03-19 11:12:00,
2013-03-19 06:22:00,42.0,40.0,29.97,West,274,0.0,0.0,92,0.00,,,0.00,,2013-03-19 11:22:00,
2013-03-19 06:32:00,41.0,39.0,29.97,West,274,0.0,0.0,92,0.00,,,0.00,,2013-03-19 11:32:00,
2013-03-19 06:42:00,41.0,39.0,29.97,West,274,0.0,0.0,92,0.00,,,0.00,,2013-03-19 11:42:00,
2013-03-19 06:52:00,41.0,39.0,29.98,West,274,0.0,0.0,92,0.00,,,0.00,,2013-03-19 11:52:00,
2013-03-19 07:02:00,40.0,38.0,29.99,West,274,0.0,0.0,94,0.00,,,0.00,,2013-03-19 12:02:00,
2013-03-19 07:12:00,40.0,39.0,29.99,West,274,0.0,0.0,95,0.00,,,0.00,,2013-03-19 12:12:00,
2013-03-19 07:22:00,40.0,39.0,29.99,West,274,0.0,0.0,95,0.00,,,0.00,,2013-03-19 12:22:00,
2013-03-19 07:32:00,40.0,39.0,30.00,West,274,0.0,0.0,95,0.00,,,0.00,,2013-03-19 12:32:00,
2013-03-19 07:42:00,40.0,39.0,30.00,West,274,0.0,0.0,95,0.00,,,0.00,,2013-03-19 12:42:00,
2013-03-19 07:52:00,39.0,37.0,30.01,SSW,212,2.0,2.0,94,0.00,,,0.00,,2013-03-19 12:52:00,
2013-03-19 08:02:00,38.0,36.0,30.01,SE,143,0.0,0.0,94,0.00,,,0.00,,2013-03-19 13:02:00,
2013-03-19 08:12:00,38.0,36.0,30.01,SE,143,0.0,0.0,94,0.00,,,0.00,,2013-03-19 13:12:00,
2013-03-19 08:22:00,39.0,37.0,30.01,SSE,166,0.0,0.0,93,0.00,,,0.00,,2013-03-19 13:22:00,
2013-03-19 08:32:00,40.0,38.0,30.01,WSW,239,0.0,0.0,94,0.00,,,0.00,,2013-03-19 13:32:00,
2013-03-19 08:42:00,40.0,38.0,30.01,WSW,239,0.0,0.0,94,0.00,,,0.00,,2013-03-19 13:42:00,
2013-03-19 08:52:00,41.0,39.0,30.00,WSW,239,0.0,0.0,94,0.00,,,0.00,,2013-03-19 13:52:00,
2013-03-19 09:02:00,44.0,42.0,30.00,WSW,239,0.0,0.0,92,0.00,,,0.00,,2013-03-19 14:02:00,
2013-03-19 09:12:00,44.0,42.0,30.00,WSW,239,0.0,0.0,92,0.00,,,0.00,,2013-03-19 14:12:00,
2013-03-19 09:22:00,49.0,45.0,30.00,ENE,58,0.0,0.0,87,0.00,,,0.00,,2013-03-19 14:22:00,
2013-03-19 09:32:00,55.0,49.0,30.00,ESE,120,2.0,3.0,79,0.00,,,0.00,,2013-03-19 14:32:00,
2013-03-19 09:42:00,55.0,49.0,30.00,ESE,120,2.0,3.0,79,0.00,,,0.00,,2013-03-19 14:42:00,
2013-03-19 09:52:00,60.0,51.0,30.00,South,176,5.0,5.0,71,0.00,,,0.00,,2013-03-19 14:52:00,
2013-03-19 10:02:00,64.0,52.0,30.00,SE,132,3.0,5.0,64,0.00,,,0.00,,2013-03-19 15:02:00,
2013-03-19 10:12:00,64.0,52.0,30.00,SE,132,3.0,5.0,64,0.00,,,0.00,,2013-03-19 15:12:00,
2013-03-19 10:22:00,67.0,52.0,30.00,SSE,167,5.0,5.0,59,0.00,,,0.00,,2013-03-19 15:22:00,
2013-03-19 10:33:00,70.0,53.0,29.98,ESE,122,0.0,0.0,54,0.00,,,0.00,,2013-03-19 15:33:00,
2013-03-19 10:43:00,70.0,53.0,29.98,ESE,122,0.0,0.0,54,0.00,,,0.00,,2013-03-19 15:43:00,
2013-03-19 10:53:00,71.0,52.0,29.98,SE,142,0.0,0.0,51,0.00,,,0.00,,2013-03-19 15:53:00,
2013-03-19 11:03:00,69.0,52.0,29.97,WNW,285,3.0,3.0,54,0.00,,,0.00,,2013-03-19 16:03:00,
2013-03-19 11:13:00,69.0,52.0,29.97,WNW,285,3.0,3.0,54,0.00,,,0.00,,2013-03-19 16:13:00,
2013-03-19 11:24:00,70.0,51.0,29.97,NNW,347,5.0,5.0,51,0.00,,,0.00,,2013-03-19 16:24:00,
2013-03-19 11:34:00,71.0,50.0,29.97,SW,229,3.0,3.0,48,0.00,,,0.00,,2013-03-19 16:34:00,
2013-03-19 11:43:00,71.0,50.0,29.97,SW,229,3.0,3.0,48,0.00,,,0.00,,2013-03-19 16:43:00,
2013-03-19 11:54:00,74.0,51.0,29.96,NW,308,2.0,0.0,44,0.00,,,0.00,,2013-03-19 16:54:00,
2013-03-19 12:03:00,75.0,50.0,29.96,North,4,5.0,5.0,41,0.00,,,0.00,,2013-03-19 17:03:00,
2013-03-19 12:13:00,77.0,49.0,29.95,NNW,338,3.0,6.0,38,0.00,,,0.00,,2013-03-19 17:13:00,
2013-03-19 12:23:00,77.0,49.0,29.95,NNW,338,3.0,6.0,38,0.00,,,0.00,,2013-03-19 17:23:00,
2013-03-19 12:34:00,80.0,49.0,29.94,NW,316,4.0,4.0,34,0.00,,,0.00,,2013-03-19 17:34:00,
2013-03-19 12:43:00,80.0,49.0,29.94,NW,316,4.0,4.0,34,0.00,,,0.00,,2013-03-19 17:43:00,
2013-03-19 12:53:00,81.0,47.0,29.93,NNW,336,4.0,7.0,31,0.00,,,0.00,,2013-03-19 17:53:00,
2013-03-19 13:02:00,80.0,47.0,29.92,NW,318,6.0,6.0,31,0.00,,,0.00,,2013-03-19 18:02:00,
2013-03-19 13:13:00,80.0,47.0,29.92,NW,318,6.0,6.0,31,0.00,,,0.00,,2013-03-19 18:13:00,
2013-03-19 13:23:00,83.0,46.0,29.91,NNW,347,4.0,4.0,27,0.00,,,0.00,,2013-03-19 18:23:00,
2013-03-19 13:33:00,88.0,46.0,29.90,SSE,153,9.0,10.0,23,0.00,,,0.00,,2013-03-19 18:33:00,
2013-03-19 13:42:00,88.0,46.0,29.90,SSE,153,9.0,10.0,23,0.00,,,0.00,,2013-03-19 18:42:00,
2013-03-19 13:53:00,91.0,42.0,29.89,SW,228,9.0,9.0,18,0.00,,,0.00,,2013-03-19 18:53:00,
2013-03-19 14:02:00,92.0,42.0,29.88,West,266,5.0,7.0,18,0.00,,,0.00,,2013-03-19 19:02:00,
2013-03-19 14:12:00,92.0,42.0,29.88,West,266,5.0,7.0,18,0.00,,,0.00,,2013-03-19 19:12:00,
2013-03-19 14:22:00,93.0,42.0,29.86,SW,215,5.0,5.0,17,0.00,,,0.00,,2013-03-19 19:22:00,
2013-03-19 14:32:00,92.0,42.0,29.85,SW,231,9.0,9.0,18,0.00,,,0.00,,2013-03-19 19:32:00,
2013-03-19 14:42:00,92.0,42.0,29.85,SW,231,9.0,9.0,18,0.00,,,0.00,,2013-03-19 19:42:00,
2013-03-19 14:53:00,91.0,43.0,29.85,WSW,249,6.0,6.0,19,0.00,,,0.00,,2013-03-19 19:53:00,
2013-03-19 15:02:00,92.0,45.0,29.83,WSW,246,8.0,9.0,20,0.00,,,0.00,,2013-03-19 20:02:00,
2013-03-19 15:12:00,93.0,45.0,29.82,SW,233,7.0,12.0,19,0.00,,,0.00,,2013-03-19 20:12:00,
2013-03-19 15:22:00,93.0,45.0,29.82,SW,233,7.0,12.0,19,0.00,,,0.00,,2013-03-19 20:22:00,
2013-03-19 15:32:00,91.0,46.0,29.81,SSW,208,6.0,6.0,21,0.00,,,0.00,,2013-03-19 20:32:00,
2013-03-19 15:42:00,91.0,46.0,29.81,SSW,208,6.0,6.0,21,0.00,,,0.00,,2013-03-19 20:42:00,
2013-03-19 15:53:00,91.0,49.0,29.81,SW,232,7.0,8.0,24,0.00,,,0.00,,2013-03-19 20:53:00,
2013-03-19 16:02:00,92.0,49.0,29.81,SW,232,9.0,12.0,23,0.00,,,0.00,,2013-03-19 21:02:00,
2013-03-19 16:12:00,90.0,47.0,29.80,SSW,197,7.0,9.0,23,0.00,,,0.00,,2013-03-19 21:12:00,
2013-03-19 16:22:00,90.0,47.0,29.80,SSW,197,7.0,9.0,23,0.00,,,0.00,,2013-03-19 21:22:00,
2013-03-19 16:33:00,90.0,49.0,29.80,WSW,248,8.0,8.0,25,0.00,,,0.00,,2013-03-19 21:33:00,
2013-03-19 16:43:00,90.0,49.0,29.80,WSW,248,8.0,8.0,25,0.00,,,0.00,,2013-03-19 21:43:00,
2013-03-19 16:53:00,86.0,50.0,29.80,WSW,245,5.0,5.0,29,0.00,,,0.00,,2013-03-19 21:53:00,
2013-03-19 17:03:00,85.0,50.0,29.80,West,263,5.0,5.0,30,0.00,,,0.00,,2013-03-19 22:03:00,
2013-03-19 17:12:00,85.0,50.0,29.80,West,263,5.0,5.0,30,0.00,,,0.00,,2013-03-19 22:12:00,
2013-03-19 17:23:00,83.0,50.0,29.79,SW,219,8.0,8.0,32,0.00,,,0.00,,2013-03-19 22:23:00,
2013-03-19 17:33:00,84.0,50.0,29.78,SW,232,6.0,7.0,31,0.00,,,0.00,,2013-03-19 22:33:00,
2013-03-19 17:43:00,88.0,51.0,29.78,SW,236,6.0,10.0,28,0.00,,,0.00,,2013-03-19 22:43:00,
2013-03-19 17:53:00,88.0,51.0,29.78,SW,236,6.0,10.0,28,0.00,,,0.00,,2013-03-19 22:53:00,
2013-03-19 18:02:00,85.0,50.0,29.78,SSW,205,5.0,5.0,30,0.00,,,0.00,,2013-03-19 23:02:00,
2013-03-19 18:12:00,82.0,48.0,29.78,SW,214,4.0,5.0,31,0.00,,,0.00,,2013-03-19 23:12:00,
2013-03-19 18:22:00,82.0,48.0,29.78,SW,214,4.0,5.0,31,0.00,,,0.00,,2013-03-19 23:22:00,
2013-03-19 18:32:00,80.0,51.0,29.79,NE,39,10.0,14.0,36,0.00,,,0.00,,2013-03-19 23:32:00,
2013-03-19 18:42:00,80.0,51.0,29.79,NE,39,10.0,14.0,36,0.00,,,0.00,,2013-03-19 23:42:00,
2013-03-19 18:52:00,76.0,52.0,29.80,NE,45,16.0,16.0,43,0.00,,,0.00,,2013-03-19 23:52:00,
2013-03-19 19:02:00,75.0,53.0,29.82,NNE,25,14.0,18.0,47,0.00,,,0.00,,2013-03-20 00:02:00,
2013-03-19 19:12:00,75.0,53.0,29.82,NNE,25,14.0,18.0,47,0.00,,,0.00,,2013-03-20 00:12:00,
2013-03-19 19:22:00,73.0,54.0,29.83,NE,38,15.0,19.0,51,0.00,,,0.00,,2013-03-20 00:22:00,
2013-03-19 19:33:00,71.0,54.0,29.85,NE,56,13.0,13.0,55,0.00,,,0.00,,2013-03-20 00:33:00,
2013-03-19 19:42:00,71.0,54.0,29.85,NE,56,13.0,13.0,55,0.00,,,0.00,,2013-03-20 00:42:00,
2013-03-19 19:52:00,69.0,54.0,29.86,NE,52,15.0,15.0,59,0.00,,,0.00,,2013-03-20 00:52:00,
2013-03-19 20:02:00,68.0,54.0,29.87,North,4,16.0,16.0,62,0.00,,,0.00,,2013-03-20 01:02:00,
2013-03-19 20:12:00,67.0,54.0,29.88,NE,41,12.0,13.0,63,0.00,,,0.00,,2013-03-20 01:12:00,
2013-03-19 20:22:00,67.0,54.0,29.88,NE,41,12.0,13.0,63,0.00,,,0.00,,2013-03-20 01:22:00,
2013-03-19 20:32:00,64.0,53.0,29.91,NNE,27,15.0,16.0,67,0.00,,,0.00,,2013-03-20 01:32:00,
2013-03-19 20:42:00,64.0,53.0,29.91,NNE,27,15.0,16.0,67,0.00,,,0.00,,2013-03-20 01:42:00,
2013-03-19 20:52:00,63.0,53.0,29.93,North,7,15.0,17.0,69,0.00,,,0.00,,2013-03-20 01:52:00,
2013-03-19 21:02:00,62.0,52.0,29.95,NE,34,12.0,12.0,70,0.00,,,0.00,,2013-03-20 02:02:00,
2013-03-19 21:12:00,62.0,52.0,29.95,NE,34,12.0,12.0,70,0.00,,,0.00,,2013-03-20 02:12:00,
2013-03-19 21:22:00,62.0,53.0,29.96,NNE,17,10.0,18.0,72,0.00,,,0.00,,2013-03-20 02:22:00,
2013-03-19 21:32:00,61.0,52.0,29.98,NE,38,10.0,10.0,72,0.00,,,0.00,,2013-03-20 02:32:00,
2013-03-19 21:42:00,61.0,52.0,29.98,NE,38,10.0,10.0,72,0.00,,,0.00,,2013-03-20 02:42:00,
2013-03-19 21:53:00,61.0,52.0,30.00,NNE,30,12.0,12.0,72,0.00,,,0.00,,2013-03-20 02:53:00,
2013-03-19 22:02:00,61.0,52.0,30.01,NE,48,11.0,11.0,73,0.00,,,0.00,,2013-03-20 03:02:00,
2013-03-19 22:12:00,60.0,51.0,30.02,NNE,21,10.0,11.0,73,0.00,,,0.00,,2013-03-20 03:12:00,
2013-03-19 22:22:00,60.0,51.0,30.02,NNE,21,10.0,11.0,73,0.00,,,0.00,,2013-03-20 03:22:00,
2013-03-19 22:33:00,60.0,51.0,30.03,NE,35,12.0,12.0,73,0.00,,,0.00,,2013-03-20 03:33:00,
2013-03-19 22:42:00,60.0,51.0,30.03,NE,35,12.0,12.0,73,0.00,,,0.00,,2013-03-20 03:42:00,
2013-03-19 22:53:00,60.0,51.0,30.03,NNE,24,8.0,9.0,72,0.00,,,0.00,,2013-03-20 03:53:00,
2013-03-19 23:03:00,60.0,51.0,30.05,NNE,25,12.0,14.0,71,0.00,,,0.00,,2013-03-20 04:03:00,
2013-03-19 23:12:00,60.0,51.0,30.05,NNE,25,12.0,14.0,71,0.00,,,0.00,,2013-03-20 04:12:00,
2013-03-19 23:22:00,60.0,51.0,30.05,North,359,12.0,12.0,71,0.00,,,0.00,,2013-03-20 04:22:00,
2013-03-19 23:32:00,60.0,51.0,30.06,NE,52,13.0,13.0,71,0.00,,,0.00,,2013-03-20 04:32:00,
2013-03-19 23:43:00,60.0,51.0,30.06,NE,52,13.0,13.0,71,0.00,,,0.00,,2013-03-20 04:43:00,
2013-03-19 23:52:00,60.0,51.0,30.08,NE,41,9.0,11.0,71,0.00,,,0.00,,2013-03-20 04:52:00,